| time (UTC) | temp F | wind direction | speed MPH | gust MPH | rain 1hr in | rain 24hr in | rain mn in | humidity % | barometer mb |
| 20260506134520 | 51 | 313 | 2.0 | 7.0 | 0.00 | 1.00 | 0.24 | 78 | 1010.2 |
| 20260506134000 | 51 | 345 | 2.0 | 6.0 | 0.00 | 1.00 | 0.24 | 79 | 1010.1 |
| 20260506133501 | 51 | 348 | 2.0 | 10.0 | 0.00 | 1.00 | 0.24 | 79 | 1010.0 |
| 20260506133005 | 50 | 323 | 2.0 | 10.0 | 0.00 | 1.00 | 0.24 | 80 | 1010.0 |
| 20260506132441 | 50 | 299 | 2.0 | 5.0 | 0.00 | 1.00 | 0.24 | 83 | 1009.9 |
| 20260506131917 | 49 | 302 | 2.0 | 6.0 | 0.00 | 1.00 | 0.24 | 86 | 1010.0 |
| 20260506131416 | 49 | 324 | 2.0 | 5.0 | 0.00 | 1.00 | 0.24 | 89 | 1009.9 |
| 20260506130919 | 49 | 310 | 2.0 | 6.0 | 0.00 | 1.00 | 0.24 | 90 | 1009.8 |
| 20260506130355 | 49 | 252 | 2.0 | 6.0 | 0.00 | 1.00 | 0.24 | 91 | 1009.6 |
| 20260506125855 | 49 | 252 | 1.0 | 4.0 | 0.00 | 1.00 | 0.24 | 91 | 1009.6 |
| 20260506125359 | 48 | 265 | 2.0 | 4.0 | 0.00 | 1.00 | 0.24 | 91 | 1009.5 |
| 20260506124856 | 48 | 259 | 2.0 | 6.0 | 0.00 | 1.00 | 0.24 | 91 | 1009.4 |
| 20260506124351 | 48 | 251 | 2.0 | 6.0 | 0.00 | 1.00 | 0.24 | 91 | 1009.3 |
| 20260506123847 | 47 | 271 | 2.0 | 7.0 | 0.00 | 1.00 | 0.24 | 91 | 1009.3 |
| 20260506123346 | 47 | 323 | 2.0 | 7.0 | 0.00 | 1.00 | 0.24 | 92 | 1009.2 |
| 20260506122837 | 47 | 304 | 2.0 | 4.0 | 0.00 | 1.00 | 0.24 | 92 | 1009.2 |
| 20260506122312 | 47 | 265 | 2.0 | 4.0 | 0.00 | 1.00 | 0.24 | 92 | 1009.1 |
| 20260506121749 | 46 | 266 | 1.0 | 4.0 | 0.00 | 1.00 | 0.24 | 92 | 1009.0 |
| 20260506121221 | 46 | 295 | 1.0 | 6.0 | 0.00 | 1.00 | 0.24 | 92 | 1008.9 |
| 20260506120720 | 46 | 264 | 2.0 | 6.0 | 0.00 | 1.00 | 0.24 | 92 | 1008.9 |
| 20260506120219 | 46 | 242 | 2.0 | 5.0 | 0.00 | 1.00 | 0.24 | 92 | 1008.8 |
| 20260506115650 | 46 | 241 | 1.0 | 3.0 | 0.00 | 1.00 | 0.24 | 92 | 1008.8 |
| 20260506115123 | 45 | 241 | 2.0 | 5.0 | 0.01 | 1.00 | 0.24 | 92 | 1009.0 |
| 20260506114557 | 45 | 255 | 2.0 | 5.0 | 0.01 | 1.00 | 0.24 | 92 | 1009.0 |
| 20260506114056 | 45 | 250 | 2.0 | 6.0 | 0.01 | 1.00 | 0.24 | 92 | 1009.1 |
| 20260506113542 | 45 | 259 | 2.0 | 6.0 | 0.01 | 1.00 | 0.24 | 92 | 1009.0 |
| 20260506113044 | 45 | 246 | 1.0 | 4.0 | 0.01 | 1.00 | 0.24 | 92 | 1009.1 |
| 20260506112541 | 45 | 246 | 2.0 | 3.0 | 0.01 | 1.00 | 0.24 | 92 | 1009.0 |
| 20260506112020 | 45 | 246 | 2.0 | 4.0 | 0.01 | 1.00 | 0.24 | 92 | 1008.9 |
| 20260506111450 | 45 | 232 | 1.0 | 4.0 | 0.01 | 1.00 | 0.24 | 92 | 1008.7 |
| 20260506110936 | 45 | 261 | 0.0 | 2.0 | 0.01 | 1.00 | 0.24 | 93 | 1008.5 |
| 20260506110434 | 45 | 261 | 0.0 | 2.0 | 0.01 | 1.00 | 0.24 | 93 | 1008.2 |
| 20260506105906 | 45 | 261 | 1.0 | 4.0 | 0.01 | 1.00 | 0.24 | 93 | 1008.1 |
| 20260506105405 | 45 | 261 | 1.0 | 4.0 | 0.00 | 0.99 | 0.24 | 93 | 1008.1 |
| 20260506104844 | 45 | 262 | 0.0 | 4.0 | 0.00 | 0.99 | 0.23 | 93 | 1008.1 |
| 20260506104343 | 45 | 271 | 0.0 | 3.0 | 0.00 | 0.99 | 0.23 | 93 | 1007.9 |
| 20260506103842 | 45 | 271 | 1.0 | 3.0 | 0.00 | 0.99 | 0.23 | 93 | 1007.8 |
| 20260506103343 | 45 | 267 | 1.0 | 3.0 | 0.00 | 0.99 | 0.23 | 93 | 1007.9 |
| 20260506102815 | 45 | 282 | 0.0 | 3.0 | 0.00 | 0.99 | 0.23 | 93 | 1007.9 |
| 20260506102314 | 45 | 292 | 0.0 | 0.0 | 0.00 | 0.99 | 0.23 | 93 | 1007.8 |
| 20260506101748 | 45 | 292 | 0.0 | 0.0 | 0.00 | 0.99 | 0.23 | 93 | 1007.8 |
| 20260506101219 | 45 | 292 | 0.0 | 2.0 | 0.00 | 0.99 | 0.23 | 93 | 1007.7 |
| 20260506100718 | 45 | 292 | 0.0 | 2.0 | 0.00 | 0.99 | 0.23 | 93 | 1007.7 |
| 20260506100153 | 44 | 292 | 0.0 | 2.0 | 0.00 | 0.99 | 0.23 | 93 | 1007.5 |
| 20260506095637 | 45 | 292 | 0.0 | 2.0 | 0.00 | 0.99 | 0.23 | 93 | 1007.6 |
| 20260506095129 | 45 | 292 | 0.0 | 3.0 | 0.01 | 0.99 | 0.23 | 93 | 1007.7 |
| 20260506094628 | 45 | 292 | 0.0 | 3.0 | 0.01 | 0.99 | 0.23 | 93 | 1008.0 |
| 20260506094135 | 45 | 334 | 0.0 | 0.0 | 0.01 | 0.99 | 0.23 | 93 | 1008.1 |
| 20260506093603 | 45 | 334 | 0.0 | 0.0 | 0.01 | 0.99 | 0.23 | 93 | 1008.0 |
| 20260506093100 | 45 | 334 | 0.0 | 0.0 | 0.01 | 0.99 | 0.23 | 93 | 1008.0 |
| 20260506092533 | 45 | 334 | 0.0 | 0.0 | 0.01 | 0.99 | 0.23 | 93 | 1007.9 |
| 20260506092036 | 45 | 334 | 0.0 | 0.0 | 0.01 | 0.99 | 0.23 | 93 | 1008.6 |
| 20260506091504 | 44 | 334 | 0.0 | 0.0 | 0.01 | 0.99 | 0.23 | 93 | 1007.8 |
| 20260506090937 | 44 | 334 | 0.0 | 0.0 | 0.01 | 0.99 | 0.23 | 93 | 1007.9 |
| 20260506090435 | 45 | 334 | 0.0 | 0.0 | 0.01 | 0.99 | 0.23 | 93 | 1008.0 |
| 20260506085907 | 45 | 334 | 0.0 | 0.0 | 0.01 | 0.99 | 0.23 | 93 | 1008.0 |
| 20260506085405 | 45 | 334 | 0.0 | 0.0 | 0.00 | 0.98 | 0.22 | 93 | 1008.2 |
| 20260506084901 | 45 | 334 | 0.0 | 0.0 | 0.00 | 0.98 | 0.22 | 93 | 1008.2 |
| 20260506084359 | 45 | 334 | 0.0 | 0.0 | 0.01 | 0.98 | 0.22 | 93 | 1008.1 |
| 20260506083831 | 45 | 334 | 0.0 | 0.0 | 0.01 | 0.98 | 0.22 | 93 | 1008.3 |
| 20260506083329 | 45 | 334 | 0.0 | 0.0 | 0.01 | 0.98 | 0.22 | 93 | 1008.0 |
| 20260506082825 | 45 | 334 | 0.0 | 0.0 | 0.01 | 0.98 | 0.22 | 93 | 1007.8 |
| 20260506082323 | 45 | 334 | 0.0 | 0.0 | 0.01 | 0.98 | 0.22 | 93 | 1007.5 |
| 20260506081755 | 45 | 334 | 0.0 | 0.0 | 0.01 | 0.98 | 0.22 | 93 | 1007.8 |
| 20260506081253 | 45 | 334 | 0.0 | 0.0 | 0.01 | 0.98 | 0.22 | 93 | 1007.9 |
| 20260506080726 | 44 | 334 | 0.0 | 2.0 | 0.02 | 0.98 | 0.22 | 93 | 1007.5 |
| 20260506080223 | 44 | 334 | 0.0 | 2.0 | 0.02 | 0.98 | 0.22 | 93 | 1007.2 |
| 20260506073026 | 45 | 334 | 0.0 | 0.0 | 0.03 | 0.97 | 0.21 | 93 | 1008.2 |
| 20260506072523 | 45 | 334 | 0.0 | 1.0 | 0.03 | 0.97 | 0.21 | 93 | 1008.2 |
| 20260506072034 | 45 | 334 | 0.0 | 1.0 | 0.03 | 0.97 | 0.21 | 93 | 1008.0 |
| 20260506071454 | 45 | 334 | 0.0 | 4.0 | 0.04 | 0.97 | 0.21 | 93 | 1007.9 |
| 20260506070920 | 45 | 334 | 1.0 | 4.0 | 0.03 | 0.96 | 0.20 | 93 | 1007.6 |
| 20260506070355 | 45 | 334 | 1.0 | 4.0 | 0.03 | 0.96 | 0.20 | 93 | 1007.4 |
| 20260506062224 | 45 | 336 | 1.0 | 5.0 | 0.09 | 0.94 | 0.18 | 94 | 1007.7 |
| 20260506061717 | 46 | 313 | 1.0 | 5.0 | 0.09 | 0.94 | 0.18 | 94 | 1007.8 |
| 20260506061216 | 46 | 313 | 2.0 | 6.0 | 0.09 | 0.93 | 0.17 | 94 | 1007.8 |
| 20260506060711 | 46 | 312 | 1.0 | 6.0 | 0.10 | 0.93 | 0.17 | 95 | 1007.6 |
| 20260506060213 | 46 | 11 | 0.0 | 5.0 | 0.09 | 0.92 | 0.16 | 95 | 1007.7 |
| 20260506051113 | 48 | 251 | 0.0 | 0.0 | 0.07 | 0.84 | 0.08 | 95 | 1007.9 |
| 20260506050546 | 48 | 251 | 0.0 | 0.0 | 0.07 | 0.83 | 0.07 | 95 | 1008.0 |
| 20260506045008 | 48 | 251 | 0.0 | 0.0 | 0.04 | 0.80 | 0.05 | 95 | 1008.1 |
| 20260506044505 | 48 | 251 | 0.0 | 0.0 | 0.05 | 0.80 | 0.04 | 95 | 1008.0 |
| 20260506044005 | 48 | 251 | 0.0 | 0.0 | 0.04 | 0.79 | 0.03 | 95 | 1008.0 |
| 20260506043445 | 48 | 251 | 0.0 | 0.0 | 0.05 | 0.79 | 0.03 | 95 | 1008.0 |
| 20260506042925 | 48 | 251 | 0.0 | 0.0 | 0.05 | 0.78 | 0.02 | 95 | 1008.0 |
| 20260506042408 | 48 | 251 | 0.0 | 0.0 | 0.05 | 0.78 | 0.02 | 95 | 1008.0 |
| 20260506041910 | 49 | 250 | 0.0 | 0.0 | 0.04 | 0.77 | 0.01 | 95 | 1008.0 |
| 20260506041404 | 49 | 250 | 0.0 | 0.0 | 0.05 | 0.77 | 0.01 | 95 | 1008.0 |
| 20260506040901 | 49 | 250 | 0.0 | 0.0 | 0.06 | 0.77 | 0.01 | 95 | 1008.1 |
| 20260506040408 | 49 | 250 | 0.0 | 0.0 | 0.05 | 0.76 | 0.00 | 95 | 1007.9 |
| 20260506035901 | 49 | 250 | 0.0 | 0.0 | 0.05 | 0.76 | 0.76 | 95 | 1007.6 |
| 20260506035400 | 49 | 250 | 0.0 | 0.0 | 0.06 | 0.76 | 0.76 | 95 | 1007.8 |
| 20260506034834 | 49 | 250 | 0.0 | 0.0 | 0.06 | 0.75 | 0.75 | 95 | 1008.0 |
| 20260506034306 | 49 | 250 | 0.0 | 0.0 | 0.07 | 0.75 | 0.75 | 95 | 1008.1 |
| 20260506033803 | 49 | 250 | 0.0 | 0.0 | 0.07 | 0.74 | 0.74 | 95 | 1008.2 |
| 20260506033301 | 49 | 250 | 0.0 | 1.0 | 0.07 | 0.74 | 0.74 | 95 | 1008.2 |
| 20260506032753 | 49 | 250 | 0.0 | 1.0 | 0.07 | 0.73 | 0.73 | 95 | 1008.4 |
| 20260506032253 | 48 | 250 | 0.0 | 0.0 | 0.08 | 0.73 | 0.73 | 95 | 1008.5 |
| 20260506031724 | 48 | 250 | 0.0 | 0.0 | 0.07 | 0.72 | 0.72 | 95 | 1008.6 |
| 20260506031157 | 48 | 250 | 0.0 | 0.0 | 0.08 | 0.72 | 0.72 | 95 | 1008.6 |
| 20260506030657 | 48 | 250 | 0.0 | 0.0 | 0.08 | 0.71 | 0.71 | 95 | 1008.5 |
| 20260506030127 | 48 | 250 | 0.0 | 0.0 | 0.09 | 0.71 | 0.71 | 95 | 1008.6 |
| 20260506025622 | 48 | 250 | 0.0 | 0.0 | 0.09 | 0.70 | 0.70 | 95 | 1008.5 |
| 20260506025118 | 48 | 250 | 0.0 | 0.0 | 0.09 | 0.69 | 0.70 | 95 | 1008.7 |
| 20260506024553 | 48 | 250 | 0.0 | 0.0 | 0.09 | 0.68 | 0.69 | 95 | 1008.6 |
| 20260506024046 | 48 | 251 | 0.0 | 0.0 | 0.09 | 0.68 | 0.68 | 95 | 1008.4 |
| 20260506023546 | 48 | 252 | 0.0 | 0.0 | 0.09 | 0.67 | 0.67 | 95 | 1008.6 |
| 20260506023032 | 49 | 252 | 0.0 | 0.0 | 0.08 | 0.66 | 0.66 | 95 | 1008.5 |
| 20260506022532 | 49 | 252 | 0.0 | 0.0 | 0.08 | 0.66 | 0.66 | 95 | 1008.4 |
| 20260506022031 | 49 | 252 | 0.0 | 0.0 | 0.07 | 0.65 | 0.65 | 95 | 1008.5 |
| 20260506021527 | 48 | 252 | 0.0 | 0.0 | 0.06 | 0.64 | 0.64 | 95 | 1008.4 |
| 20260506021035 | 48 | 252 | 0.0 | 0.0 | 0.06 | 0.64 | 0.64 | 94 | 1008.3 |
| 20260506020507 | 49 | 250 | 0.0 | 0.0 | 0.05 | 0.62 | 0.63 | 94 | 1008.2 |
| 20260506020009 | 49 | 250 | 0.0 | 0.0 | 0.04 | 0.61 | 0.62 | 94 | 1008.2 |
| 20260506015436 | 49 | 250 | 0.0 | 0.0 | 0.04 | 0.60 | 0.61 | 94 | 1008.3 |
| 20260506014932 | 49 | 250 | 0.0 | 0.0 | 0.04 | 0.60 | 0.60 | 95 | 1008.1 |
| 20260506014432 | 49 | 250 | 0.0 | 0.0 | 0.03 | 0.59 | 0.59 | 95 | 1008.2 |
| 20260506013906 | 49 | 250 | 0.0 | 0.0 | 0.04 | 0.59 | 0.59 | 95 | 1008.0 |
| 20260506013347 | 49 | 250 | 0.0 | 0.0 | 0.03 | 0.58 | 0.58 | 94 | 1007.9 |
| 20260506012821 | 49 | 250 | 0.0 | 0.0 | 0.04 | 0.58 | 0.58 | 94 | 1007.9 |
| 20260506012313 | 49 | 250 | 0.0 | 0.0 | 0.05 | 0.58 | 0.58 | 94 | 1007.6 |
| 20260506011746 | 49 | 250 | 0.0 | 0.0 | 0.06 | 0.58 | 0.58 | 94 | 1007.7 |
| 20260506011229 | 48 | 250 | 0.0 | 0.0 | 0.06 | 0.58 | 0.58 | 94 | 1007.6 |
| 20260506010704 | 48 | 250 | 0.0 | 0.0 | 0.06 | 0.57 | 0.57 | 94 | 1007.7 |
| 20260506010205 | 48 | 250 | 0.0 | 0.0 | 0.06 | 0.57 | 0.57 | 94 | 1007.6 |
| 20260506005649 | 48 | 250 | 0.0 | 0.0 | 0.06 | 0.57 | 0.57 | 94 | 1007.6 |
| 20260506005148 | 48 | 250 | 0.0 | 0.0 | 0.05 | 0.56 | 0.56 | 94 | 1007.8 |
| 20260506004636 | 48 | 250 | 0.0 | 0.0 | 0.06 | 0.56 | 0.56 | 94 | 1007.8 |
| 20260506004135 | 48 | 250 | 0.0 | 0.0 | 0.05 | 0.55 | 0.55 | 94 | 1007.8 |
| 20260506003633 | 49 | 250 | 1.0 | 3.0 | 0.05 | 0.55 | 0.55 | 94 | 1007.7 |
| 20260506003108 | 49 | 250 | 1.0 | 3.0 | 0.04 | 0.54 | 0.54 | 94 | 1007.8 |
| 20260506002553 | 49 | 281 | 0.0 | 2.0 | 0.05 | 0.54 | 0.54 | 94 | 1007.9 |
| 20260506002051 | 49 | 289 | 0.0 | 0.0 | 0.04 | 0.53 | 0.53 | 94 | 1007.6 |
| 20260506001533 | 49 | 290 | 0.0 | 0.0 | 0.03 | 0.52 | 0.52 | 94 | 1007.7 |
| 20260506001029 | 49 | 290 | 0.0 | 0.0 | 0.03 | 0.52 | 0.52 | 94 | 1007.5 |
| 20260506000530 | 49 | 290 | 0.0 | 0.0 | 0.02 | 0.51 | 0.51 | 94 | 1007.5 |
| 20260506000030 | 50 | 290 | 0.0 | 0.0 | 0.02 | 0.51 | 0.51 | 94 | 1007.4 |
| 20260505235503 | 50 | 290 | 0.0 | 0.0 | 0.03 | 0.51 | 0.51 | 94 | 1007.2 |
| 20260505234941 | 50 | 290 | 0.0 | 1.0 | 0.03 | 0.51 | 0.51 | 94 | 1007.3 |
| 20260505234416 | 50 | 290 | 0.0 | 1.0 | 0.02 | 0.50 | 0.50 | 94 | 1007.4 |
| 20260505233929 | 50 | 290 | 0.0 | 1.0 | 0.02 | 0.50 | 0.50 | 94 | 1007.4 |
| 20260505233418 | 50 | 290 | 0.0 | 3.0 | 0.03 | 0.50 | 0.50 | 94 | 1007.2 |
| 20260505232918 | 50 | 290 | 1.0 | 3.0 | 0.04 | 0.50 | 0.50 | 94 | 1007.2 |
| 20260505232351 | 50 | 290 | 0.0 | 3.0 | 0.04 | 0.49 | 0.49 | 94 | 1007.2 |
| 20260505231826 | 50 | 290 | 0.0 | 3.0 | 0.05 | 0.49 | 0.49 | 94 | 1007.3 |
| 20260505231328 | 50 | 289 | 0.0 | 3.0 | 0.06 | 0.49 | 0.49 | 94 | 1007.4 |
| 20260505230801 | 50 | 289 | 0.0 | 3.0 | 0.07 | 0.49 | 0.49 | 94 | 1007.3 |
| 20260505230237 | 50 | 337 | 0.0 | 2.0 | 0.08 | 0.49 | 0.49 | 94 | 1007.3 |
| 20260505225711 | 50 | 322 | 0.0 | 0.0 | 0.09 | 0.48 | 0.48 | 94 | 1007.3 |
| 20260505225200 | 50 | 322 | 0.0 | 0.0 | 0.11 | 0.48 | 0.48 | 94 | 1007.6 |
| 20260505224655 | 50 | 328 | 0.0 | 0.0 | 0.12 | 0.48 | 0.48 | 94 | 1007.5 |
| 20260505224157 | 50 | 329 | 1.0 | 3.0 | 0.13 | 0.48 | 0.48 | 94 | 1007.6 |
| 20260505223631 | 50 | 329 | 1.0 | 3.0 | 0.13 | 0.47 | 0.47 | 94 | 1007.6 |
| 20260505223126 | 50 | 309 | 1.0 | 3.0 | 0.13 | 0.46 | 0.46 | 94 | 1008.0 |
| 20260505222600 | 50 | 347 | 1.0 | 6.0 | 0.13 | 0.45 | 0.45 | 94 | 1007.7 |
| 20260505222034 | 51 | 296 | 1.0 | 4.0 | 0.12 | 0.44 | 0.44 | 94 | 1007.4 |
| 20260505221528 | 51 | 288 | 1.0 | 4.0 | 0.11 | 0.43 | 0.43 | 94 | 1007.4 |
| 20260505221023 | 51 | 286 | 1.0 | 4.0 | 0.11 | 0.42 | 0.42 | 94 | 1007.5 |
| 20260505220517 | 51 | 279 | 1.0 | 8.0 | 0.10 | 0.41 | 0.41 | 94 | 1007.4 |
| 20260505220010 | 51 | 294 | 2.0 | 8.0 | 0.10 | 0.40 | 0.40 | 94 | 1007.3 |
| 20260505215510 | 51 | 304 | 1.0 | 4.0 | 0.08 | 0.38 | 0.38 | 94 | 1007.3 |
| 20260505214941 | 51 | 333 | 1.0 | 4.0 | 0.07 | 0.37 | 0.37 | 94 | 1007.3 |
| 20260505214416 | 51 | 344 | 1.0 | 7.0 | 0.07 | 0.36 | 0.36 | 93 | 1007.2 |
| 20260505213912 | 51 | 15 | 1.0 | 7.0 | 0.05 | 0.34 | 0.35 | 93 | 1007.3 |
| 20260505213345 | 51 | 348 | 1.0 | 5.0 | 0.05 | 0.33 | 0.33 | 93 | 1007.3 |
| 20260505212842 | 51 | 329 | 2.0 | 6.0 | 0.04 | 0.32 | 0.32 | 93 | 1007.1 |
| 20260505212314 | 51 | 348 | 2.0 | 5.0 | 0.04 | 0.32 | 0.32 | 93 | 1006.9 |
| 20260505211812 | 51 | 340 | 2.0 | 6.0 | 0.05 | 0.32 | 0.32 | 93 | 1006.8 |
| 20260505211245 | 51 | 313 | 2.0 | 8.0 | 0.05 | 0.31 | 0.31 | 93 | 1006.6 |
| 20260505210742 | 52 | 10 | 2.0 | 8.0 | 0.05 | 0.31 | 0.31 | 93 | 1006.7 |
| 20260505210239 | 52 | 327 | 2.0 | 6.0 | 0.05 | 0.30 | 0.30 | 93 | 1006.8 |
| 20260505205715 | 52 | 292 | 2.0 | 4.0 | 0.06 | 0.30 | 0.30 | 93 | 1006.8 |
| 20260505205212 | 52 | 279 | 1.0 | 4.0 | 0.06 | 0.30 | 0.30 | 93 | 1006.7 |
| 20260505204644 | 52 | 256 | 2.0 | 6.0 | 0.06 | 0.29 | 0.29 | 93 | 1006.7 |
| 20260505204120 | 52 | 281 | 3.0 | 6.0 | 0.07 | 0.29 | 0.29 | 93 | 1006.9 |
| 20260505203552 | 52 | 286 | 2.0 | 5.0 | 0.08 | 0.28 | 0.28 | 93 | 1007.0 |
| 20260505203024 | 52 | 263 | 2.0 | 5.0 | 0.08 | 0.28 | 0.28 | 93 | 1007.0 |
| 20260505202522 | 53 | 302 | 2.0 | 9.0 | 0.08 | 0.28 | 0.28 | 93 | 1007.1 |
| 20260505201954 | 53 | 306 | 1.0 | 9.0 | 0.08 | 0.27 | 0.28 | 93 | 1007.4 |
| 20260505201448 | 53 | 254 | 1.0 | 7.0 | 0.10 | 0.27 | 0.27 | 93 | 1007.3 |
| 20260505200948 | 53 | 253 | 2.0 | 7.0 | 0.10 | 0.26 | 0.26 | 93 | 1007.3 |
| 20260505200447 | 53 | 254 | 3.0 | 12.0 | 0.11 | 0.25 | 0.25 | 93 | 1007.4 |
| 20260505195910 | 53 | 261 | 3.0 | 12.0 | 0.12 | 0.24 | 0.24 | 93 | 1007.3 |
| 20260505195408 | 54 | 258 | 3.0 | 11.0 | 0.13 | 0.24 | 0.24 | 93 | 1007.5 |
| 20260505194841 | 54 | 302 | 4.0 | 11.0 | 0.13 | 0.23 | 0.23 | 93 | 1007.5 |
| 20260505194337 | 54 | 333 | 4.0 | 11.0 | 0.13 | 0.22 | 0.22 | 93 | 1007.4 |
| 20260505193830 | 55 | 270 | 3.0 | 11.0 | 0.13 | 0.21 | 0.21 | 92 | 1007.4 |
| 20260505193326 | 55 | 292 | 2.0 | 6.0 | 0.13 | 0.20 | 0.20 | 92 | 1007.3 |
| 20260505192825 | 56 | 273 | 2.0 | 7.0 | 0.14 | 0.20 | 0.20 | 92 | 1007.1 |
| 20260505192322 | 56 | 257 | 2.0 | 7.0 | 0.14 | 0.19 | 0.19 | 93 | 1007.0 |
| 20260505191756 | 56 | 254 | 1.0 | 4.0 | 0.14 | 0.18 | 0.18 | 92 | 1007.0 |
| 20260505191252 | 56 | 262 | 2.0 | 4.0 | 0.15 | 0.17 | 0.17 | 92 | 1006.9 |
| 20260505190727 | 56 | 266 | 2.0 | 4.0 | 0.14 | 0.15 | 0.15 | 92 | 1007.0 |
| 20260505190225 | 56 | 251 | 2.0 | 5.0 | 0.12 | 0.13 | 0.13 | 92 | 1007.0 |
| 20260505185714 | 56 | 232 | 2.0 | 5.0 | 0.12 | 0.12 | 0.12 | 92 | 1006.8 |
| 20260505185211 | 56 | 244 | 2.0 | 7.0 | 0.11 | 0.11 | 0.11 | 91 | 1006.8 |
| 20260505184642 | 57 | 259 | 1.0 | 7.0 | 0.10 | 0.10 | 0.10 | 91 | 1006.8 |
| 20260505184143 | 57 | 247 | 1.0 | 4.0 | 0.09 | 0.09 | 0.09 | 91 | 1006.8 |
| 20260505183647 | 57 | 247 | 2.0 | 5.0 | 0.08 | 0.08 | 0.08 | 90 | 1006.7 |
| 20260505183139 | 57 | 230 | 2.0 | 5.0 | 0.07 | 0.07 | 0.07 | 90 | 1006.7 |
| 20260505182643 | 57 | 234 | 2.0 | 4.0 | 0.05 | 0.05 | 0.05 | 89 | 1006.8 |
| 20260505182137 | 58 | 269 | 2.0 | 7.0 | 0.04 | 0.04 | 0.04 | 89 | 1006.5 |
| 20260505181641 | 58 | 252 | 2.0 | 7.0 | 0.03 | 0.03 | 0.03 | 88 | 1006.5 |
| 20260505181113 | 58 | 254 | 2.0 | 3.0 | 0.02 | 0.02 | 0.02 | 88 | 1006.5 |
| 20260505180611 | 59 | 255 | 2.0 | 3.0 | 0.01 | 0.01 | 0.01 | 87 | 1006.5 |
| 20260505180044 | 59 | 255 | 2.0 | 6.0 | 0.00 | 0.00 | 0.00 | 86 | 1006.6 |
| 20260505175516 | 59 | 255 | 3.0 | 8.0 | 0.00 | 0.00 | 0.00 | 85 | 1006.5 |
| 20260505175015 | 59 | 219 | 2.0 | 8.0 | 0.00 | 0.00 | 0.00 | 85 | 1006.6 |
| 20260505174516 | 60 | 257 | 2.0 | 7.0 | 0.00 | 0.00 | 0.00 | 84 | 1006.5 |
| 20260505173944 | 60 | 245 | 3.0 | 8.0 | 0.00 | 0.00 | 0.00 | 83 | 1006.5 |
| 20260505173447 | 60 | 256 | 3.0 | 10.0 | 0.00 | 0.00 | 0.00 | 83 | 1006.5 |
| 20260505172917 | 60 | 257 | 4.0 | 10.0 | 0.00 | 0.00 | 0.00 | 83 | 1006.5 |
| 20260505172353 | 60 | 250 | 4.0 | 10.0 | 0.00 | 0.00 | 0.00 | 82 | 1006.6 |
| 20260505171828 | 61 | 247 | 3.0 | 9.0 | 0.00 | 0.00 | 0.00 | 81 | 1006.6 |
| 20260505171306 | 61 | 244 | 3.0 | 7.0 | 0.00 | 0.00 | 0.00 | 80 | 1006.5 |
| 20260505170805 | 61 | 269 | 3.0 | 9.0 | 0.00 | 0.00 | 0.00 | 80 | 1006.4 |
| 20260505170240 | 61 | 254 | 4.0 | 12.0 | 0.00 | 0.00 | 0.00 | 80 | 1006.5 |
| 20260505165719 | 61 | 269 | 4.0 | 12.0 | 0.00 | 0.00 | 0.00 | 79 | 1006.4 |
| 20260505165153 | 61 | 256 | 4.0 | 12.0 | 0.00 | 0.00 | 0.00 | 80 | 1006.4 |
| 20260505164630 | 62 | 256 | 4.0 | 12.0 | 0.00 | 0.00 | 0.00 | 80 | 1006.4 |
| 20260505164109 | 62 | 277 | 4.0 | 11.0 | 0.00 | 0.00 | 0.00 | 80 | 1006.3 |
| 20260505163609 | 62 | 267 | 4.0 | 11.0 | 0.00 | 0.00 | 0.00 | 80 | 1006.4 |
| 20260505163054 | 62 | 240 | 4.0 | 11.0 | 0.00 | 0.00 | 0.00 | 79 | 1006.3 |
| 20260505162550 | 62 | 236 | 5.0 | 15.0 | 0.00 | 0.00 | 0.00 | 79 | 1006.3 |
| 20260505162053 | 62 | 237 | 6.0 | 15.0 | 0.00 | 0.00 | 0.00 | 79 | 1006.3 |
| 20260505161551 | 62 | 260 | 6.0 | 16.0 | 0.00 | 0.00 | 0.00 | 78 | 1006.4 |
| 20260505161057 | 62 | 259 | 6.0 | 16.0 | 0.00 | 0.00 | 0.00 | 79 | 1006.3 |
| 20260505160532 | 63 | 252 | 5.0 | 11.0 | 0.00 | 0.00 | 0.00 | 79 | 1006.3 |
| 20260505153335 | 63 | 250 | 6.0 | 15.0 | 0.00 | 0.00 | 0.00 | 78 | 1006.3 |
| 20260505152813 | 63 | 277 | 6.0 | 15.0 | 0.00 | 0.00 | 0.00 | 78 | 1006.2 |
| 20260505152314 | 63 | 262 | 5.0 | 12.0 | 0.00 | 0.00 | 0.00 | 77 | 1006.1 |
| 20260505151809 | 64 | 200 | 5.0 | 11.0 | 0.00 | 0.00 | 0.00 | 77 | 1006.0 |
| 20260505151259 | 64 | 290 | 6.0 | 12.0 | 0.00 | 0.00 | 0.00 | 77 | 1005.8 |
| 20260505150803 | 64 | 261 | 6.0 | 12.0 | 0.00 | 0.00 | 0.00 | 77 | 1005.9 |
| 20260505150237 | 64 | 237 | 5.0 | 15.0 | 0.00 | 0.00 | 0.00 | 77 | 1005.6 |
| 20260505140508 | 64 | 246 | 5.0 | 9.0 | 0.00 | 0.00 | 0.00 | 77 | 1004.5 |